STARLINK-34798 (65063 NORAD) Tracking and Keplerian Element Data

This shows tracking and keplerian element data for the satellite.

Feedback or suggestion? Click here.




ElementValue
Catalog65063
NameSTARLINK-34798
Epoch Orbit2283
Epoch Day354.20310524
Epoch Year2025
RAAN68.9332
Inclination97.6059
Eccentricity0.0001557
Argument of Perigee90.0374
Mean Anonmoly270.1032
Mean Motion15.05648235
Decay Rate1.431E-05
L11 65063U 25165H 25354.20310524 .00001431 00000+0 10339-3 0 9992
L22 65063 97.6059 68.9332 0001557 90.0374 270.1032 15.05648235 22839



Live tracking and technical data element details for STARLINK-34798 (NORAD 65063). STARLINK-34798 can be tracked NOW for your location showing map with azimuth and elevation plus other details from your city location.







IsCatalogInMostPopularTable: catalog: 65063, numindb: 3
Update: records affected: 1



GetName: 65063 STARLINK-34798

Hit Count: updated at: Sat, 07 Feb 2026 09:05:08 GMT